• In Germany
  • List of Countries
  • For 7 days
  • Water Temperature
  • Satellite Maps
  • Weather Map
  • Weather Widgets
  • user-avatar
    Login

    Hourly Weather Sydney

    Today, 28 June, Wednesday

    Time Temperature Precipitation Wind Pressure Humidity
    00:00 +8°C° 0 mm 2 mps 767 mmHg 96%
    01:00 +8°C° 0 mm 2 mps 767 mmHg 96%
    02:00 +8°C° 0 mm 2 mps 766 mmHg 97%
    03:00 +8°C° 0 mm 2 mps 766 mmHg 97%
    04:00 +8°C° 0 mm 2 mps 766 mmHg 97%
    05:00 +8°C° 0 mm 2 mps 766 mmHg 96%
    06:00 +8°C° 0 mm 2 mps 766 mmHg 95%
    07:00 +9°C° 0 mm 2 mps 766 mmHg 95%
    08:00 +10°C° 0 mm 2 mps 766 mmHg 85%
    09:00 +13°C° 0 mm 2 mps 766 mmHg 76%
    10:00 +15°C° 0 mm 2 mps 766 mmHg 61%
    11:00 +15°C° 0.1 mm 2 mps 765 mmHg 64%
    12:00 +16°C° 0.1 mm 2 mps 765 mmHg 67%
    13:00 +16°C° 0.1 mm 3 mps 765 mmHg 70%
    14:00 +14°C° 0.3 mm 3 mps 765 mmHg 76%
    15:00 +14°C° 0.3 mm 2 mps 764 mmHg 81%
    16:00 +13°C° 0 mm 1 mps 765 mmHg 90%
    17:00 +12°C° 0 mm 2 mps 765 mmHg 93%
    18:00 +10°C° 0 mm 2 mps 765 mmHg 95%
    19:00 +9°C° 0 mm 2 mps 765 mmHg 97%
    20:00 +9°C° 0 mm 2 mps 765 mmHg 96%
    21:00 +8°C° 0 mm 2 mps 765 mmHg 96%
    22:00 +8°C° 0 mm 2 mps 765 mmHg 96%
    23:00 +9°C° 0 mm 2 mps 765 mmHg 94%

    Tomorrow, 29 June, Thursday

    Time Temperature Precipitation Wind Pressure Humidity
    00:00 +9°C° 0 mm 2 mps 765 mmHg 91%
    01:00 +9°C° 0 mm 3 mps 765 mmHg 89%
    02:00 +9°C° 0 mm 3 mps 765 mmHg 88%
    03:00 +9°C° 0 mm 3 mps 765 mmHg 87%
    04:00 +9°C° 0 mm 3 mps 765 mmHg 86%
    05:00 +9°C° 0 mm 3 mps 765 mmHg 85%
    06:00 +9°C° 0 mm 3 mps 765 mmHg 84%
    07:00 +9°C° 0 mm 3 mps 765 mmHg 84%
    08:00 +9°C° 0 mm 3 mps 765 mmHg 81%
    09:00 +10°C° 0 mm 3 mps 765 mmHg 78%
    10:00 +12°C° 0 mm 2 mps 765 mmHg 75%
    11:00 +13°C° 0 mm 2 mps 764 mmHg 70%
    12:00 +14°C° 0 mm 2 mps 764 mmHg 65%
    13:00 +15°C° 0 mm 2 mps 763 mmHg 61%
    14:00 +15°C° 0 mm 2 mps 763 mmHg 64%
    15:00 +15°C° 0 mm 2 mps 763 mmHg 68%
    16:00 +15°C° 0 mm 2 mps 763 mmHg 71%
    17:00 +13°C° 0 mm 2 mps 763 mmHg 77%
    18:00 +10°C° 0 mm 2 mps 763 mmHg 83%
    19:00 +9°C° 0 mm 2 mps 764 mmHg 90%
    20:00 +9°C° 0 mm 3 mps 764 mmHg 87%
    21:00 +7°C° 0 mm 4 mps 764 mmHg 84%
    22:00 +7°C° 0 mm 5 mps 765 mmHg 81%
    23:00 +7°C° 0 mm 5 mps 765 mmHg 80%

    Day after tomorrow, 30 June, Friday

    Time Temperature Precipitation Wind Pressure Humidity
    00:00 +7°C° 0 mm 5 mps 765 mmHg 80%
    01:00 +7°C° 0 mm 6 mps 765 mmHg 80%
    02:00 +7°C° 0 mm 6 mps 765 mmHg 80%
    03:00 +7°C° 0 mm 6 mps 765 mmHg 79%
    04:00 +6°C° 0 mm 7 mps 765 mmHg 79%
    05:00 +5°C° 0 mm 7 mps 766 mmHg 80%
    06:00 +5°C° 0 mm 7 mps 766 mmHg 81%
    07:00 +5°C° 0 mm 7 mps 767 mmHg 81%
    08:00 +6°C° 0 mm 7 mps 767 mmHg 71%
    09:00 +9°C° 0 mm 8 mps 768 mmHg 61%
    10:00 +10°C° 0 mm 8 mps 768 mmHg 51%
    11:00 +11°C° 0 mm 8 mps 768 mmHg 46%
    12:00 +11°C° 0 mm 8 mps 768 mmHg 42%
    13:00 +12°C° 0 mm 7 mps 767 mmHg 37%
    14:00 +12°C° 0 mm 7 mps 768 mmHg 40%
    15:00 +11°C° 0 mm 7 mps 768 mmHg 44%
    16:00 +11°C° 0 mm 6 mps 768 mmHg 47%
    17:00 +9°C° 0 mm 6 mps 769 mmHg 53%
    18:00 +7°C° 0 mm 6 mps 769 mmHg 59%
    19:00 +4°C° 0 mm 6 mps 770 mmHg 65%
    20:00 +4°C° 0 mm 6 mps 770 mmHg 65%
    21:00 +4°C° 0 mm 7 mps 771 mmHg 64%
    22:00 +4°C° 0 mm 7 mps 771 mmHg 64%
    23:00 +4°C° 0 mm 6 mps 771 mmHg 65%

    1 July, Saturday

    Time Temperature Precipitation Wind Pressure Humidity
    00:00 +3°C° 0 mm 6 mps 771 mmHg 66%
    01:00 +3°C° 0 mm 6 mps 771 mmHg 66%
    02:00 +2°C° 0 mm 6 mps 771 mmHg 67%
    03:00 +2°C° 0 mm 6 mps 771 mmHg 68%
    04:00 +2°C° 0 mm 6 mps 771 mmHg 68%
    05:00 +1°C° 0 mm 5 mps 771 mmHg 69%
    06:00 +1°C° 0 mm 5 mps 771 mmHg 69%
    07:00 +1°C° 0 mm 5 mps 771 mmHg 70%
    08:00 +3°C° 0 mm 5 mps 772 mmHg 64%
    09:00 +7°C° 0 mm 5 mps 772 mmHg 57%
    10:00 +9°C° 0 mm 5 mps 772 mmHg 51%
    11:00 +11°C° 0 mm 4 mps 771 mmHg 49%
    12:00 +13°C° 0 mm 4 mps 770 mmHg 47%
    13:00 +14°C° 0 mm 4 mps 770 mmHg 45%
    14:00 +13°C° 0 mm 3 mps 770 mmHg 51%
    15:00 +13°C° 0 mm 3 mps 769 mmHg 57%
    16:00 +12°C° 0 mm 3 mps 769 mmHg 63%
    17:00 +10°C° 0 mm 2 mps 770 mmHg 73%
    18:00 +7°C° 0 mm 2 mps 770 mmHg 83%
    19:00 +4°C° 0 mm 2 mps 770 mmHg 93%
    20:00 +5°C° 0 mm 2 mps 770 mmHg 90%
    21:00 +5°C° 0 mm 2 mps 770 mmHg 88%
    22:00 +5°C° 0 mm 2 mps 770 mmHg 85%
    23:00 +5°C° 0 mm 2 mps 770 mmHg 86%

    2 July, Sunday

    Time Temperature Precipitation Wind Pressure Humidity
    00:00 +4°C° 0 mm 2 mps 770 mmHg 86%
    01:00 +4°C° 0 mm 2 mps 770 mmHg 87%
    02:00 +3°C° 0 mm 2 mps 769 mmHg 87%
    03:00 +3°C° 0 mm 2 mps 769 mmHg 88%
    04:00 +3°C° 0 mm 2 mps 769 mmHg 88%
    05:00 +3°C° 0 mm 2 mps 769 mmHg 85%
    06:00 +3°C° 0 mm 2 mps 769 mmHg 82%
    07:00 +3°C° 0 mm 2 mps 769 mmHg 79%
    08:00 +6°C° 0 mm 2 mps 769 mmHg 68%
    09:00 +9°C° 0 mm 2 mps 769 mmHg 56%
    10:00 +13°C° 0 mm 2 mps 769 mmHg 44%
    11:00 +14°C° 0 mm 2 mps 768 mmHg 42%
    12:00 +14°C° 0 mm 3 mps 767 mmHg 39%
    13:00 +17°C° 0 mm 3 mps 766 mmHg 36%
    14:00 +16°C° 0 mm 3 mps 766 mmHg 41%
    15:00 +14°C° 0 mm 3 mps 766 mmHg 46%
    16:00 +13°C° 0 mm 3 mps 765 mmHg 51%
    17:00 +12°C° 0 mm 4 mps 765 mmHg 57%
    18:00 +10°C° 0 mm 4 mps 766 mmHg 63%
    19:00 +7°C° 0 mm 4 mps 766 mmHg 69%
    20:00 +6°C° 0 mm 5 mps 766 mmHg 70%
    21:00 +6°C° 0 mm 5 mps 766 mmHg 70%
    22:00 +6°C° 0 mm 5 mps 766 mmHg 71%
    23:00 +5°C° 0 mm 5 mps 765 mmHg 74%

    3 July, Monday

    Time Temperature Precipitation Wind Pressure Humidity
    00:00 +5°C° 0 mm 5 mps 765 mmHg 77%
    01:00 +3°C° 0 mm 5 mps 764 mmHg 79%
    02:00 +3°C° 0 mm 5 mps 764 mmHg 81%
    03:00 +4°C° 0 mm 4 mps 763 mmHg 83%
    04:00 +4°C° 0 mm 4 mps 763 mmHg 85%
    05:00 +5°C° 0 mm 4 mps 763 mmHg 82%
    06:00 +6°C° 0 mm 4 mps 762 mmHg 79%
    07:00 +6°C° 0 mm 4 mps 762 mmHg 77%
    08:00 +8°C° 0.1 mm 5 mps 762 mmHg 72%
    09:00 +10°C° 0.1 mm 5 mps 762 mmHg 68%
    10:00 +13°C° 0.1 mm 6 mps 761 mmHg 64%
    11:00 +15°C° 0.1 mm 6 mps 760 mmHg 60%
    12:00 +17°C° 0.1 mm 7 mps 759 mmHg 56%
    13:00 +21°C° 0.1 mm 7 mps 758 mmHg 52%
    14:00 +20°C° 0 mm 7 mps 758 mmHg 55%
    15:00 +18°C° 0 mm 7 mps 757 mmHg 58%
    16:00 +17°C° 0 mm 7 mps 757 mmHg 62%
    17:00 +16°C° 0 mm 7 mps 757 mmHg 67%
    18:00 +14°C° 0 mm 7 mps 757 mmHg 72%
    19:00 +12°C° 0 mm 7 mps 758 mmHg 77%
    20:00 +11°C° 0 mm 7 mps 758 mmHg 77%
    21:00 +11°C° 0 mm 7 mps 758 mmHg 77%
    22:00 +10°C° 0 mm 7 mps 758 mmHg 77%
    23:00 +10°C° 0 mm 7 mps 757 mmHg 70%
    Show more